User: anonymous   Login
Location: Unspecified
(0.0000°N, 0.0000°E)
Time: 18:10:01
(UTC+00:00)
Language:

TIANMU-1 16 - Orbit

View from above orbital plane
View from above orbital plane
View from above satellite
View from above satellite

Ground track
Ground track

The orbit is defined by the following mean orbital elements,

1 58701U          26145.53997984 +.00000000 +00000-0 +20850-3 0 00004
2 58701  97.4622 330.9930 0007539  77.4776 282.7306 15.26475403    07
Epoch (UTC): 25 May 2026 12:57:34
Eccentricity: 0.0007539
inclination: 97.4622°
perigee height: 481 km
apogee height: 492 km
right ascension of ascending node: 330.9930°
argument of perigee: 77.4776°
revolutions per day: 15.26475403
mean anomaly at epoch: 282.7306°

The dashed part of the orbit path shows where the satellite is in the earth's shadow,  

DLR